Date String (YYYY-MM-DD hh:mm:ss) UTC,Instrument flags,Ambient pressure (hPa),Sample flow (lpm),Bypass flow (lpm),Sample temperature (°C),Ambient temperature (°C),ASC tube jacket temperature (°C),LED temperature (°C),Box temperature (°C),Sample RH (%),Span deviation,Mass concentration (μg/m³),Mass concentration (μg/m³),Mass concentration (μg/m³)
DateTimeUTC,F1_M11,P_M11,Q1_M11,Q2_M11,T1_M11,T2_M11,T3_M11,T4_M11,T5_M11,U1_M11,ZSPAN_M11,X0_M11,X2_M11,X1_M11
2023-04-13 01:00:00,,0820.2,5.00,0.00,30.0,28.8,00.0,38.3,31.7,09.8,0000.0,0009.73,0003.27,0002.20
2023-04-13 01:01:00,,0820.3,5.00,0.00,30.1,28.8,00.0,38.3,31.7,09.8,0000.0,0010.57,0003.28,0002.20
2023-04-13 01:02:00,,0820.3,4.99,0.00,30.1,28.5,00.0,38.3,31.7,09.8,0000.0,0010.59,0003.28,0002.20
2023-04-13 01:03:00,,0820.2,4.99,0.00,30.1,26.9,00.0,38.2,31.5,09.9,0000.0,0011.32,0003.27,0002.21
2023-04-13 01:04:00,,0820.2,5.01,0.00,30.0,26.2,00.0,38.2,31.4,10.0,0000.0,0011.62,0003.25,0002.22
2023-04-13 01:05:00,,0820.1,5.02,0.00,29.9,26.3,00.0,38.2,31.3,10.1,0000.0,0011.75,0003.24,0002.21
2023-04-13 01:06:00,,0820.2,4.97,0.00,29.9,26.6,00.0,38.2,31.2,10.0,0000.0,0011.72,0003.26,0002.21
2023-04-13 01:07:00,,0820.1,5.01,0.00,29.9,26.9,00.0,38.2,31.2,09.9,0000.0,0011.24,0003.25,0002.22
2023-04-13 01:08:00,,0820.1,5.01,0.00,29.8,27.1,00.0,38.2,31.3,10.0,0000.0,0011.03,0003.21,0002.22
2023-04-13 01:09:00,,0820.2,5.00,0.00,29.8,27.4,00.0,38.2,31.3,10.1,0000.0,0011.55,0003.21,0002.20
2023-04-13 01:10:00,,0820.2,5.00,0.00,29.8,27.7,00.0,38.2,31.3,10.2,0000.0,0011.61,0003.23,0002.22
2023-04-13 01:11:00,,0820.2,5.00,0.00,29.8,27.8,00.0,38.2,31.4,10.2,0000.0,0009.84,0003.22,0002.22
2023-04-13 01:12:00,,0820.1,4.99,0.00,29.9,28.0,00.0,38.2,31.4,10.1,0000.0,0008.58,0003.18,0002.21
2023-04-13 01:13:00,,0820.2,5.00,0.00,29.9,28.2,00.0,38.2,31.4,10.0,0000.0,0008.51,0003.17,0002.19
2023-04-13 01:14:00,,0820.2,5.00,0.00,29.9,28.3,00.0,38.2,31.5,10.0,0000.0,0007.95,0003.19,0002.18
2023-04-13 01:15:00,,0820.2,5.00,0.00,29.9,28.4,00.0,38.2,31.5,10.1,0000.0,0007.58,0003.20,0002.16
2023-04-13 01:16:00,,0820.2,5.00,0.00,29.9,28.4,00.0,38.3,31.6,10.1,0000.0,0008.21,0003.21,0002.18
2023-04-13 01:17:00,,0820.3,4.98,0.00,30.0,28.5,00.0,38.3,31.6,10.1,0000.0,0008.92,0003.20,0002.19
2023-04-13 01:18:00,,0820.1,4.99,0.00,30.0,28.6,00.0,38.3,31.6,10.1,0000.0,0009.36,0003.21,0002.21
2023-04-13 01:19:00,,0820.3,5.01,0.00,30.0,28.6,00.0,38.3,31.7,10.1,0000.0,0009.39,0003.23,0002.22
2023-04-13 01:20:00,,0820.1,5.00,0.00,30.0,28.7,00.0,38.3,31.7,10.1,0000.0,0009.04,0003.23,0002.25
2023-04-13 01:21:00,,0820.2,5.01,0.00,30.1,28.7,00.0,38.3,31.7,10.2,0000.0,0008.89,0003.23,0002.25
2023-04-13 01:22:00,,0820.0,5.00,0.00,30.1,28.8,00.0,38.4,31.7,10.1,0000.0,0009.58,0003.27,0002.26
2023-04-13 01:23:00,,0820.0,4.99,0.00,30.1,28.8,00.0,38.4,31.7,10.2,0000.0,0010.18,0003.32,0002.27
2023-04-13 01:24:00,,0820.0,5.00,0.00,30.1,28.8,00.0,38.4,31.7,10.1,0000.0,0010.81,0003.35,0002.29
2023-04-13 01:25:00,,0820.0,4.99,0.00,30.2,28.8,00.0,38.4,31.8,10.0,0000.0,0010.78,0003.34,0002.31
2023-04-13 01:26:00,,0820.0,4.99,0.00,30.2,27.7,00.0,38.4,31.7,09.9,0000.0,0011.50,0003.37,0002.33
2023-04-13 01:27:00,,0820.0,5.00,0.00,30.1,26.2,00.0,38.3,31.4,10.1,0000.0,0011.64,0003.35,0002.33
2023-04-13 01:28:00,,0819.9,5.00,0.00,30.0,26.1,00.0,38.2,31.4,10.0,0000.0,0011.28,0003.34,0002.33
2023-04-13 01:29:00,,0820.0,5.01,0.00,30.0,26.3,00.0,38.2,31.3,10.1,0000.0,0010.70,0003.34,0002.33
2023-04-13 01:30:00,,0820.2,5.00,0.00,29.9,26.6,00.0,38.3,31.2,10.2,0000.0,0010.73,0003.34,0002.32
2023-04-13 01:31:00,,0820.0,5.01,0.00,29.9,26.9,00.0,38.2,31.2,10.2,0000.0,0011.02,0003.34,0002.31
2023-04-13 01:32:00,,0820.1,5.00,0.00,29.8,27.2,00.0,38.2,31.3,10.3,0000.0,0011.68,0003.37,0002.32
2023-04-13 01:33:00,,0819.7,4.99,0.00,29.8,27.4,00.0,38.2,31.3,10.3,0000.0,0011.33,0003.34,0002.32
2023-04-13 01:34:00,,0819.7,5.00,0.00,29.8,27.6,00.0,38.3,31.4,10.3,0000.0,0010.95,0003.34,0002.33
2023-04-13 01:35:00,,0820.0,4.99,0.00,29.8,27.8,00.0,38.2,31.4,10.4,0000.0,0010.46,0003.32,0002.34
2023-04-13 01:36:00,,0820.0,5.01,0.00,29.9,27.9,00.0,38.2,31.4,10.4,0000.0,0010.55,0003.29,0002.32
2023-04-13 01:37:00,,0819.7,5.00,0.00,29.9,28.0,00.0,38.2,31.5,10.4,0000.0,0010.69,0003.26,0002.31
2023-04-13 01:38:00,,0819.8,5.00,0.00,29.9,28.1,00.0,38.2,31.5,10.4,0000.0,0009.79,0003.27,0002.30
2023-04-13 01:39:00,,0819.9,5.00,0.00,29.9,28.2,00.0,38.2,31.5,10.4,0000.0,0009.34,0003.30,0002.30
2023-04-13 01:40:00,,0819.8,4.99,0.00,29.9,28.2,00.0,38.2,31.4,10.3,0000.0,0009.55,0003.30,0002.30
2023-04-13 01:41:00,,0820.1,4.99,0.00,29.9,28.2,00.0,38.2,31.5,10.3,0000.0,0009.49,0003.30,0002.31
2023-04-13 01:42:00,,0819.8,5.00,0.00,29.9,28.3,00.0,38.3,31.5,10.3,0000.0,0009.10,0003.29,0002.32
2023-04-13 01:43:00,,0819.8,5.00,0.00,29.9,28.3,00.0,38.3,31.5,10.3,0000.0,0008.44,0003.26,0002.32
2023-04-13 01:44:00,,0820.0,5.00,0.00,29.9,28.4,00.0,38.3,31.5,10.3,0000.0,0008.21,0003.23,0002.31
2023-04-13 01:45:00,,0820.1,5.01,0.00,29.9,28.4,00.0,38.3,31.5,10.3,0000.0,0008.15,0003.22,0002.30
2023-04-13 01:46:00,,0820.0,5.01,0.00,30.0,28.4,00.0,38.3,31.5,10.3,0000.0,0008.86,0003.22,0002.28
2023-04-13 01:47:00,,0820.2,5.01,0.00,30.0,28.4,00.0,38.3,31.5,10.3,0000.0,0008.85,0003.23,0002.27
2023-04-13 01:48:00,,0819.9,5.00,0.00,30.0,28.4,00.0,38.3,31.5,10.3,0000.0,0008.16,0003.22,0002.27
2023-04-13 01:49:00,,0819.8,4.99,0.00,30.0,28.4,00.0,38.3,31.5,10.4,0000.0,0008.08,0003.22,0002.26
2023-04-13 01:50:00,,0819.9,4.99,0.00,30.0,28.4,00.0,38.3,31.6,10.4,0000.0,0008.20,0003.25,0002.25
2023-04-13 01:51:00,,0820.0,5.00,0.00,30.0,28.4,00.0,38.3,31.6,10.4,0000.0,0008.53,0003.23,0002.25
2023-04-13 01:52:00,,0819.8,5.00,0.00,30.0,28.5,00.0,38.3,31.6,10.4,0000.0,0009.24,0003.23,0002.21
2023-04-13 01:53:00,,0819.7,5.00,0.00,30.0,28.5,00.0,38.4,31.6,10.2,0000.0,0009.25,0003.21,0002.17
2023-04-13 01:54:00,,0819.8,5.01,0.00,30.0,28.5,00.0,38.4,31.6,10.3,0000.0,0009.15,0003.18,0002.15
2023-04-13 01:55:00,,0819.8,5.01,0.00,30.1,28.5,00.0,38.4,31.7,10.3,0000.0,0009.72,0003.22,0002.13
2023-04-13 01:56:00,,0820.0,5.01,0.00,30.1,28.5,00.0,38.4,31.7,10.2,0000.0,0009.51,0003.19,0002.12
2023-04-13 01:57:00,,0820.1,5.00,0.00,30.1,28.5,00.0,38.4,31.7,10.2,0000.0,0008.88,0003.18,0002.12
2023-04-13 01:58:00,,0819.8,4.99,0.00,30.1,28.6,00.0,38.4,31.7,10.3,0000.0,0009.45,0003.20,0002.13
2023-04-13 01:59:00,,0819.9,4.99,0.00,30.1,28.6,00.0,38.4,31.7,10.3,0000.0,0009.95,0003.24,0002.12
